Location: Taipo
(41.0000°S, 175.9500°E)
Time: 00:54:26
(UTC+00:00)

BlueWalker 3 - Visible Passes

Search period start: 21 June 2024 00:00
Search period end: 01 July 2024 00:00
Orbit: 480 x 494 km, 53.2° (Epoch: 20 June)

Date Brightness Start Highest point End Pass type
(mag) Time Alt. Az. Time Alt. Az. Time Alt. Az.
23 Jun 3.9 18:49:07 10° NNW 18:52:35 33° NE 18:56:05 10° ESE visible
24 Jun 3.9 18:23:29 10° NNW 18:26:52 31° NE 18:30:18 10° ESE visible
25 Jun 4.0 17:57:51 10° NNW 18:01:10 28° NE 18:04:31 10° ESE visible
26 Jun 4.0 17:32:30 11° N 17:35:27 26° NE 17:38:43 10° ESE visible
26 Jun 2.3 19:09:47 10° WNW 19:13:28 43° SSW 19:17:11 10° SE visible
27 Jun 4.0 17:09:19 24° NE 17:09:44 24° NE 17:12:54 10° ESE visible
27 Jun 2.2 18:44:00 10° WNW 18:47:42 46° SSW 18:51:28 10° SE visible
28 Jun 4.7 16:45:40 17° E 16:45:40 17° E 16:47:04 10° ESE visible
28 Jun 2.1 18:20:04 26° W 18:21:56 49° SSW 18:25:43 10° SE visible
29 Jun 2.0 17:56:04 52° SW 17:56:10 52° SW 17:59:58 10° SE visible
30 Jun 3.2 17:31:50 33° SSE 17:31:50 33° SSE 17:34:13 10° SE visible
30 Jun 3.7 19:06:36 10° WSW 19:09:14 17° SSW 19:11:52 10° SSE visible
